TimeEDT,TemperatureF,Dew PointF,Humidity,Sea Level PressureIn,VisibilityMPH,Wind Direction,Wind SpeedMPH,Gust SpeedMPH,PrecipitationIn,Events,Conditions,WindDirDegrees,DateUTC
12:20 AM,39.2,37.4,93,29.67,3.0,SE,5.8,-,0.00,,Light Drizzle,140,2013-03-19 04:20:00
12:51 AM,39.9,37.0,89,29.72,2.5,SSE,4.6,-,0.00,,Light Drizzle,150,2013-03-19 04:51:00
1:51 AM,41.0,39.2,93,29.67,3.0,Calm,Calm,-,N/A,,Light Drizzle,0,2013-03-19 05:51:00
2:13 AM,42.8,39.2,87,29.68,3.0,WNW,12.7,17.3,0.00,,Drizzle,290,2013-03-19 06:13:00
2:51 AM,43.0,37.9,82,29.75,10.0,West,17.3,23.0,0.01,,Overcast,270,2013-03-19 06:51:00
3:51 AM,37.9,34.0,86,29.78,5.0,WNW,23.0,31.1,0.00,,Light Drizzle,290,2013-03-19 07:51:00
4:23 AM,37.4,32.0,81,29.75,10.0,WNW,15.0,-,0.00,,Overcast,290,2013-03-19 08:23:00
4:51 AM,37.0,32.0,82,29.80,10.0,West,11.5,-,0.00,,Overcast,280,2013-03-19 08:51:00
5:51 AM,37.9,30.0,73,29.82,10.0,SW,5.8,-,N/A,,Overcast,230,2013-03-19 09:51:00
6:51 AM,37.0,30.0,76,29.83,10.0,SW,6.9,-,N/A,,Overcast,230,2013-03-19 10:51:00
7:51 AM,37.0,28.0,70,29.82,10.0,South,6.9,-,N/A,,Overcast,180,2013-03-19 11:51:00
8:51 AM,37.9,27.0,65,29.80,10.0,SSW,17.3,23.0,N/A,,Overcast,210,2013-03-19 12:51:00
9:51 AM,39.9,26.1,58,29.79,10.0,WSW,16.1,26.5,N/A,,Mostly Cloudy,250,2013-03-19 13:51:00
10:51 AM,41.0,25.0,53,29.78,10.0,WSW,13.8,26.5,0.00,,Scattered Clouds,240,2013-03-19 14:51:00
11:51 AM,41.0,21.9,47,29.79,10.0,West,18.4,38.0,N/A,,Mostly Cloudy,260,2013-03-19 15:51:00
12:51 PM,41.0,19.0,41,29.80,10.0,West,23.0,36.8,N/A,,Mostly Cloudy,270,2013-03-19 16:51:00
1:51 PM,37.9,21.0,51,29.83,10.0,West,20.7,34.5,N/A,,Mostly Cloudy,270,2013-03-19 17:51:00
2:51 PM,37.9,16.0,41,29.82,10.0,West,26.5,35.7,N/A,,Mostly Cloudy,280,2013-03-19 18:51:00
3:51 PM,36.0,17.1,46,29.86,10.0,West,21.9,29.9,N/A,,Mostly Cloudy,270,2013-03-19 19:51:00
4:51 PM,36.0,16.0,44,29.89,9.0,West,23.0,40.3,0.00,Snow,Light Snow,270,2013-03-19 20:51:00
5:51 PM,35.1,18.0,50,29.91,10.0,West,23.0,34.5,0.00,,Mostly Cloudy,270,2013-03-19 21:51:00
6:51 PM,34.0,16.0,48,29.93,10.0,WSW,20.7,32.2,N/A,,Mostly Cloudy,250,2013-03-19 22:51:00
7:51 PM,33.1,15.1,48,29.95,10.0,WNW,21.9,33.4,N/A,,Overcast,290,2013-03-19 23:51:00
8:51 PM,32.0,14.0,48,29.96,10.0,West,16.1,26.5,0.00,,Mostly Cloudy,270,2013-03-20 00:51:00
9:51 PM,30.9,14.0,50,29.98,10.0,West,16.1,23.0,N/A,,Partly Cloudy,270,2013-03-20 01:51:00
10:51 PM,30.9,15.1,52,29.99,10.0,West,10.4,18.4,N/A,,Partly Cloudy,270,2013-03-20 02:51:00
11:51 PM,30.0,16.0,56,29.99,10.0,West,11.5,17.3,N/A,,Partly Cloudy,270,2013-03-20 03:51:00